Change the Weather History Date:

Friday, December 6, 2013

  Actual Average Record
Temperature  
Mean Temperature 33 °F -  
Max Temperature 40 °F 57 °F 68 °F (2012)
Min Temperature 26 °F 36 °F 25 °F (2011)
Degree Days  
Heating Degree Days 32    
Moisture  
Dew Point 13 °F    
Average Humidity 42    
Maximum Humidity 76    
Minimum Humidity 31    
Precipitation  
Precipitation 0.00 in - - ()
Sea Level Pressure  
Sea Level Pressure 30.16 in    
Wind  
Wind Speed 9 mph (ENE)    
Max Wind Speed 14 mph    
Max Gust Speed -    
Visibility 10 miles    
Events      
Averages and records for this station are not official NWS values.
T = Trace of Precipitation, MM = Missing Value Source: NWS Daily Summary

Daily Weather History Graph

Daily Weather History Graph

Search for Another Location

Airport or City:

Trip Planner

Search our weather history database for the weather conditions in past years. The results will help you decide how hot, cold, wet, or windy it might be!

Date:

Astronomy

Dec. 06, 2013 Rise Set
Actual Time 6:37 AM PST 4:25 PM PST
Civil Twilight 6:09 AM PST 4:53 PM PST
Nautical Twilight 5:37 AM PST 5:25 PM PST
Astronomical Twilight 5:05 AM PST 5:56 PM PST
Moon 9:50 AM PST (12/6) 8:56 PM PST (12/6)
Length of Visible Light 10h 44m
Length of Day
9h 47m
Waxing Crescent, 20% of the Moon is Illuminated
Dec 6
Waxing Crescent
Dec 9
First Quarter
Dec 17
Full
Dec 25
Last Quarter
Jan 1
New

Hourly Weather History & Observations

Time (PST) Temp. Windchill Dew Point Humidity Pressure Visibility Wind Dir Wind Speed Gust Speed Precip Events Conditions
12:58 AM 29.8 °F 21.5 °F 14.2 °F 52% 30.16 in 10.0 mi ENE 9.2 mph - N/A   Clear
1:58 AM 30.2 °F 21.9 °F 13.1 °F 49% 30.17 in 10.0 mi East 9.2 mph - N/A   Clear
2:58 AM 29.5 °F - 13.6 °F 52% 30.17 in 10.0 mi Calm Calm - N/A   Clear
3:58 AM 28.4 °F 22.2 °F 14.0 °F 55% 30.19 in 10.0 mi ENE 5.8 mph - N/A   Clear
4:58 AM 26.1 °F 21.9 °F 19.4 °F 76% 30.19 in 10.0 mi NNE 3.5 mph - N/A   Clear
5:58 AM 28.2 °F 18.3 °F 12.4 °F 52% 30.21 in 10.0 mi East 11.5 mph - N/A   Clear
6:58 AM 28.2 °F 19.5 °F 12.2 °F 51% 30.24 in 10.0 mi ENE 9.2 mph - N/A   Clear
7:58 AM 29.8 °F 21.5 °F 12.9 °F 49% 30.25 in 10.0 mi East 9.2 mph - N/A   Clear
8:58 AM 32.9 °F 28.5 °F 13.6 °F 45% 30.26 in 10.0 mi NNE 4.6 mph - N/A   Clear
9:58 AM 35.2 °F 27.1 °F 10.9 °F 37% 30.26 in 10.0 mi ENE 11.5 mph - N/A   Clear
10:58 AM 37.0 °F 29.8 °F 10.6 °F 34% 30.25 in 10.0 mi NE 10.4 mph - N/A   Clear
11:58 AM 38.5 °F 31.6 °F 11.1 °F 33% 30.20 in 10.0 mi NE 10.4 mph - N/A   Clear
12:58 PM 39.6 °F 31.7 °F 11.3 °F 31% 30.16 in 10.0 mi NE 13.8 mph - N/A   Clear
1:58 PM 40.3 °F 33.0 °F 11.3 °F 31% 30.13 in 10.0 mi NE 12.7 mph - N/A   Clear
2:58 PM 40.8 °F 33.3 °F 11.8 °F 31% 30.12 in 10.0 mi NE 13.8 mph - N/A   Clear
3:58 PM 39.9 °F 32.1 °F 11.7 °F 31% 30.12 in 10.0 mi NE 13.8 mph - N/A   Clear
4:58 PM 37.6 °F 29.6 °F 12.4 °F 36% 30.13 in 10.0 mi NE 12.7 mph - N/A   Clear
5:58 PM 36.5 °F 29.2 °F 12.7 °F 38% 30.12 in 10.0 mi ENE 10.4 mph - N/A   Clear
6:58 PM 36.9 °F 30.7 °F 12.2 °F 36% 30.12 in 10.0 mi East 8.1 mph - N/A   Clear
7:58 PM 36.3 °F 28.9 °F 12.6 °F 38% 30.12 in 10.0 mi East 10.4 mph - N/A   Clear
8:58 PM 36.7 °F 29.9 °F 12.2 °F 37% 30.11 in 10.0 mi ENE 9.2 mph - N/A   Mostly Cloudy
9:58 PM 36.0 °F 28.5 °F 12.2 °F 38% 30.10 in 10.0 mi ENE 10.4 mph - N/A   Clear
10:57 PM 37.4 °F 30.8 °F 12.2 °F 36% 30.05 in 10.0 mi ENE 9.2 mph - N/A   Scattered Clouds
11:57 PM 35.6 °F 28.6 °F 14.0 °F 41% 30.04 in 10.0 mi East 9.2 mph - N/A   Mostly Cloudy